This is the latest recevied weather packets stored in our database for station/object KF0JJO. If no packets are shown the sender has not sent any weather packets the latest 10 day(s).
| Time | Temp. | Humidity | Pressure | Rain* | Wind** | Luminosity | Snow |
|---|---|---|---|---|---|---|---|
| 1777726706 | 7.78° C | 47% | 1050.2 hPa | 0 mm | - | 41 W/m² | - |
| 1777726403 | 7.78° C | 50% | 1050.2 hPa | 0 mm | - | 56 W/m² | - |
| 1777726100 | 7.22° C | 51% | 1050.1 hPa | 0 mm | - | 48 W/m² | - |
| 1777725797 | 6.67° C | 54% | 1050.2 hPa | 0 mm | - | 42 W/m² | - |
| 1777725495 | 6.11° C | 56% | 1050.1 hPa | 0 mm | - | 38 W/m² | - |
| 1777725192 | 5.56° C | 58% | 1050.1 hPa | 0 mm | - | 33 W/m² | - |
| 1777724889 | 5.56° C | 59% | 1050 hPa | 0 mm | - | 32 W/m² | - |
| 1777724584 | 5° C | 59% | 1050.1 hPa | 0 mm | - | 34 W/m² | - |
| 1777724283 | 5° C | 60% | 1050.1 hPa | 0 mm | - | 29 W/m² | - |
| 1777723980 | 4.44° C | 62% | 1050.1 hPa | 0 mm | - | 27 W/m² | - |
| 1777723677 | 3.89° C | 65% | 1050 hPa | 0 mm | - | 26 W/m² | - |
| 1777723374 | 3.33° C | 68% | 1050.2 hPa | 0 mm | - | 25 W/m² | - |
| 1777723072 | 2.78° C | 71% | 1050.1 hPa | 0 mm | - | 23 W/m² | - |
| 1777722768 | 2.22° C | 74% | 1050.1 hPa | 0 mm | - | 21 W/m² | - |
| 1777722464 | 1.67° C | 75% | 1050 hPa | 0 mm | - | 20 W/m² | - |
| 1777722161 | 1.67° C | 76% | 1050.2 hPa | 0 mm | - | 18 W/m² | - |
| 1777721858 | 1.67° C | 76% | 1050.1 hPa | 0 mm | - | 16 W/m² | - |
| 1777721556 | 1.67° C | 76% | 1050.1 hPa | 0 mm | - | 14 W/m² | - |
| 1777721254 | 1.67° C | 76% | 1050 hPa | 0 mm | - | 12 W/m² | - |
| 1777720951 | 1.67° C | 76% | 1049.9 hPa | 0 mm | - | 10 W/m² | - |
| 1777720648 | 1.67° C | 76% | 1050 hPa | 0 mm | - | 8 W/m² | - |
| 1777720346 | 1.67° C | 76% | 1050.1 hPa | 0 mm | - | 6 W/m² | - |
| 1777720043 | 1.67° C | 76% | 1050 hPa | 0 mm | - | 4 W/m² | - |
| 1777719741 | 1.67° C | 76% | 1049.9 hPa | 0 mm | - | 3 W/m² | - |
| 1777719439 | 1.67° C | 76% | 1049.8 hPa | 0 mm | - | 1 W/m² | - |
* Rain latest hour (hover to see other rain measurements)
** Current wind speed in m/s (hover to see current wind gust speed)